KUIPER-00532

导读

KUIPER-00532(NORAD编号69604)是美国亚马逊公司柯伊伯(Project Kuiper)低轨互联网星座的组网卫星,大概率为2025年9月第五次发射入轨的27颗组网星之一,发射由ULA的Atlas V火箭自卡纳维拉尔角执行,初始部署高度465公里,后续抬升至590-630公里的运营轨道。该星配备相控阵天线与星间激光链路,在轨运行状态稳定,主要承担全球欠接入区域的高速宽带通信任务,是亚马逊推进3236颗卫星星座组网、追赶FCC要求2026年7月完成半数卫星部署节点的重要组成部分。

基本信息
目录编号:
69604
目录名称:
KUIPER-00532
国际标识:
2026-140N
轨道中心:
EARTH
卫星名称:
KUIPER-00532
卫星全名:
KUIPER-00532
卫星状态:
在轨 (已飞行79 天)
发射日期:
2026-06-17 UTC
国别 :
美国 (US)
星等 :
--
轨道信息
数据来源 国际轨道数据
星历时间: 2026-09-04T06:00:02+0800
9小时前
查看轨道信息
半长轴: 6867.857km
偏心率: 0.0004571
轨道倾角: 51.886°
近地点辐角 197.702°
升交点赤经 18.795°
平近点角 230.967°
近地点: 486.58km
远地点: 492.86km
周期: 94.404分钟
每日圈数: 15.253551
详细信息
使用方式:
暂无
2D轨道图
3D轨道图
轨道高度分析图
轨道倾角分析图
轨道综合分析图
查看轨道综合分析图
交会数据列表
事件ID 空间交会对象 最接近时刻(TCA) 交会距离 交会风险概率(CRP) 交会风险指数(CRI) 操作
CDM_260903-193206-632506-960421
2026-09-03T
19:32:32+0000
0.493 km
远距离
1.490334E-4 高风险 0.78
CDM_260905-115405-750906-960421
2026-09-05T
11:54:52+0000
0.551 km
远距离
9.76549E-5 中风险 0.75
CDM_260904-031606-215206-960421
2026-09-04T
03:16:59+0000
0.707 km
远距离
6.697591E-5 中风险 0.72
CDM_260904-170505-806706-960421
2026-09-04T
17:05:02+0000
0.773 km
远距离
3.938918E-5 中风险 0.67
CDM_260901-091904-839706-960421
2026-09-01T
09:19:56+0000
1.128 km
极远距离
1.528887E-5 中风险 0.59
CDM_260904-215105-952506-960421
2026-09-04T
21:51:01+0000
1.015 km
极远距离
5.956189E-6 低风险 0.5
CDM_260902-135805-316806-960421
2026-09-02T
13:58:07+0000
1.504 km
极远距离
3.723217E-6 低风险 0.46
CDM_260830-102806-509706-960421
2026-08-30T
10:28:37+0000
1.658 km
极远距离
3.703711E-6 低风险 0.46
CDM_260904-043606-242606-960421
2026-09-04T
04:36:13+0000
1.230 km
极远距离
2.959333E-6 低风险 0.44
CDM_260829-101406-509706-960421
2026-08-29T
10:14:45+0000
1.850 km
极远距离
2.706456E-6 低风险 0.44